Regional Weather Roundup
Issued by NWS

Home | Current Version | Previous Version | Text Only | Print | Product List | Glossary Off
Versions: 1 2 3 4 5 6 7 8 9 10 11 12 13 14 15 16 17 18 19 20 21 22 23 24 25 26 27 28 29 30 31 32 33 34 35 36 37 38 39 40 41 42 43 44 45 46 47 48 49 50

000
ASUS45 KTFX 070310
RWRMT
MONTANA REGIONAL WEATHER ROUNDUP
NATIONAL WEATHER SERVICE GREAT FALLS MT
800 PM MST SAT FEB 06 2016

NOTE: "FAIR" INDICATES FEW OR NO CLOUDS BELOW 12000 FEET WITH NO
SIGNIFICANT WEATHER AND/OR OBSTRUCTIONS TO VISIBILITY.

MTZ001>007-043-070400-
WEST OF THE DIVIDE

CITY           SKY/WX    TMP DP  RH WIND       PRES   REMARKS
KALISPELL      CLOUDY    32  18  56 SW8       30.29R WCI  25
MISSOULA       CLOUDY    37  23  56 NW8       30.35R WCI  31
BUTTE          CLOUDY    30  11  45 W8        30.21R WCI  22
MULLAN PASS    CLOUDY    22  19  89 W10G20    30.26S WCI  11
ANACONDA         N/A     34  10  37 W5        30.23R
DEER LODGE       N/A     30  19  64 N3        30.26R
HAMILTON         N/A     41  16  36 S10G17    30.33R
LIBBY            N/A     36  19  51 CALM      30.33R
$$

MTZ008-052>055-070400-
SOUTHWEST MONTANA

CITY           SKY/WX    TMP DP  RH WIND       PRES   REMARKS
BOZEMAN        CLOUDY    34  17  50 CALM      30.19R
DILLON         CLOUDY    37  18  46 W28G35    30.24R WCI  25
ENNIS          PTCLDY    34  18  51 S14       30.28F WCI  24
TWIN BRIDGES     N/A     36  17  46 E5        30.20R
$$

MTZ009-010-012-014-046-048-049-054-070400-
EAST SLOPES AND CENTRAL MONTANA

CITY           SKY/WX    TMP DP  RH WIND       PRES   REMARKS
CUT BANK       CLEAR     29  15  56 W17       30.14R WCI  17
GREAT FALLS    PTCLDY    31  16  54 W13       30.17R WCI  21
MALMSTROM AFB  CLEAR     34  17  49 W12       30.17R WCI  25
HELENA         CLOUDY    37  21  52 NW17G25   30.22R WCI  27
CHOTEAU          N/A     32  14  47 W14       30.18R WCI  22
CONRAD           N/A     36  16  44 W20       30.16R WCI  25
$$

MTZ011-013-016-021-045-047-050-051-070400-
NORTH CENTRAL MONTANA

CITY           SKY/WX    TMP DP  RH WIND       PRES   REMARKS
HAVRE          PTCLDY    37  20  50 W22       30.06R WCI  26
LEWISTOWN      CLOUDY    34  19  54 W22G30    30.10R WCI  22
N BAR RANCH    MIX PCPN  34  16  47 NW22G31   30.08R WCI  22
CHINOOK          N/A     39  19  45 W15       30.04R WCI  31
$$

MTZ017>020-022>027-061-062-070400-
NORTHEAST MONTANA

CITY           SKY/WX    TMP DP  RH WIND       PRES   REMARKS
GLASGOW        CLOUDY    36  28  73 W28G37    29.94R WCI  23
JORDAN           N/A     34  31  88 NW20      30.01F WCI  23
SIDNEY         CLEAR     37  27  65 W33G40    29.84S WCI  24
WOLF POINT     CLEAR     37  30  75 W22G29    29.92R WCI  26
PLENTYWOOD       N/A     36  21  55 W21G29    29.77R WCI  24
POPLAR           N/A     36  28  75 W17G24    29.90R WCI  25
$$

MTZ028>42-056>058-070400-
SOUTHCENTRAL AND SOUTHEAST MONTANA

CITY           SKY/WX    TMP DP  RH WIND       PRES   REMARKS
BAKER          CLOUDY    37  23  56 W20G31    29.94R WCI  27
BILLINGS       CLOUDY    40  13  33 NW30G41   30.08R
LIVINGSTON     CLOUDY    34  15  46 W12       30.16R WCI  25
MILES CITY     CLOUDY    38  26  62 NW25G33   30.01R WCI  27
FORSYTH          N/A     36  21  55 W9        30.07S WCI  29
LAUREL           N/A     38  11  33 NW15      30.08R WCI  29
ROUNDUP          N/A     37  12  36 W13       30.01R WCI  29
$$

REGIONAL REPORTS...DAKOTAS

CITY           SKY/WX    TMP DP  RH WIND       PRES   REMARKS
WILLISTON      CLEAR     38  24  57 W18G28    29.80R WCI  28
MINOT          CLOUDY    40  31  70 W24G31    29.61R
DICKINSON      CLEAR     36  24  62 W31G43    29.80R WCI  23
BEACH            N/A     36  25  64 W26       29.93R WCI  23
CROSBY           N/A     36  25  64 W25G36    29.72R WCI  23
TIOGA            N/A     36  28  75 W28G41    29.77R WCI  23
WATFORD CITY     N/A     37  25  60 W17G26    29.81R WCI  28
BISMARCK       CLOUDY    46  30  53 NW22G35   29.73R
GRAND FORKS    CLOUDY    40  31  70 SW16      29.51F
FARGO          MOCLDY    39  33  79 SW15      29.61S WCI  31
BUFFALO SD       N/A     39  21  48 W31G43    29.87R WCI  27
RAPID CITY     CLOUDY    41  21  44 NW18      29.98R
$$

REGIONAL REPORTS...WYOMING/IDAHO/WASHINGTON

CITY           SKY/WX    TMP DP  RH WIND       PRES   REMARKS
GILLETTE       CLOUDY    35  17  47 NW22G30   30.08R WCI  23
SHERIDAN       CLOUDY    37  18  44 NW9       30.08R WCI  31
BUFFALO WY     CLOUDY    34  19  54 NW15G24   30.08R WCI  24
CODY           CLOUDY    39  16  38 W18G31    30.08S WCI  30
YELLOWSTONE LA   N/A     21  16  81 VRB5      30.26F
IDAHO FALLS    CLOUDY    21  18  88 N10G20    30.39S WCI  10
SALMON         CLOUDY    25  21  86 SE3       30.34S
BOISE          MOCLDY    37  32  82 W6        30.44R
SPOKANE        PTCLDY    35  30  82 SW8       30.38S WCI  29
$$

REGIONAL REPORTS...ALBERTA

CITY           SKY/WX    TMP DP  RH WIND       PRES   REMARKS
EDMONTON       PTCLDY    32  21  64 W10       29.98R WCI  24
CALGARY        PTCLDY    32   5  32 W15G22    30.06R WCI  22
MEDICINE HAT   CLEAR     37  12  35 W30       30.01R WCI  25
WATERTON GATE    N/A     34  14  44 W14G21      N/A  WCI  24
MILK RIVER       N/A     34  12  40 W21         N/A  WCI  22
$$

REGIONAL REPORTS...SASKATCHEWAN

CITY           SKY/WX    TMP DP  RH WIND       PRES   REMARKS
SWIFT CURRENT  CLEAR     36  21  55 W26G33    29.81R WCI  23
REGINA         PTCLDY    36  23  60 NW30G40   29.67R WCI  22
SASKATOON      CLOUDY    36  25  64 W25G32    29.65R WCI  23
CYPRESS HILLS    N/A     30  10  43 W15G28      N/A  WCI  19
VAL MARIE        N/A     36  23  60 W21G26      N/A  WCI  24
ROCKGLEN         N/A     30  25  80 W21         N/A  WCI  17
ASSINIBOIA       N/A     32  23  69 NW26G38     N/A  WCI  18
$$



USA.gov is the U.S. government's official web portal to all federal, state and local government web resources and services.